User: anonymous   Login
Location: Unspecified
(0.0000°N, 0.0000°E)
Time: 10:48:21
(UTC+00:00)
Language:

GONETS M04 - Orbit

View from above orbital plane
View from above orbital plane
View from above satellite
View from above satellite

Ground track
Ground track

The orbit data is extracted from the following two-line orbital elements,

1 38736U 12041D   17202.71615223 +.00000010 +00000-0 +00000-0 0  9995
2 38736 082.4827 302.6244 0019856 308.0174 051.9119 12.42890613226038
Epoch (UTC): 21 July 2017 17:11:15
Eccentricity: 0.0019856
inclination: 82.4827°
perigee height: 1479 km
apogee height: 1510 km
right ascension of ascending node: 302.6244°
argument of perigee: 308.0174°
revolutions per day: 12.42890613
mean anomaly at epoch: 51.9119°
orbit number at epoch: 22603

The dashed part of the orbit path shows where the satellite is in the earth's shadow,  

DLR